• In Belarus
  • List of Countries
  • For 7 days
  • Water Temperature
  • Satellite Maps
  • Weather Map
  • Weather Widgets
  • user-avatar
    Login

    Hourly Weather Bartkow

    Today, 22 February, Friday

    Time Temperature Precipitation Wind Pressure Humidity
    00:00 +5°C° 0.5 mm 5 mps 749 mmHg 93%
    01:00 +5°C° 0 mm 4 mps 749 mmHg 93%
    02:00 +5°C° 0.5 mm 4 mps 750 mmHg 92%
    03:00 +5°C° 0.5 mm 5 mps 750 mmHg 91%
    04:00 +4°C° 0.5 mm 6 mps 751 mmHg 90%
    05:00 +2°C° 0 mm 6 mps 752 mmHg 86%
    06:00 -1°C° 0 mm 7 mps 753 mmHg 82%
    07:00 -2°C° 0 mm 6 mps 755 mmHg 77%
    08:00 -3°C° 0 mm 6 mps 756 mmHg 70%
    09:00 -3°C° 0 mm 6 mps 757 mmHg 63%
    10:00 -3°C° 0 mm 6 mps 758 mmHg 57%
    11:00 -3°C° 0 mm 6 mps 759 mmHg 52%
    12:00 -3°C° 0 mm 6 mps 760 mmHg 47%
    13:00 -1°C° 0 mm 5 mps 761 mmHg 41%
    14:00 -2°C° 0 mm 5 mps 762 mmHg 41%
    15:00 -2°C° 0 mm 5 mps 762 mmHg 42%
    16:00 -2°C° 0 mm 5 mps 762 mmHg 42%
    17:00 -3°C° 0 mm 4 mps 763 mmHg 44%
    18:00 -4°C° 0 mm 4 mps 764 mmHg 47%
    19:00 -4°C° 0 mm 4 mps 764 mmHg 50%
    20:00 -4°C° 0 mm 3 mps 765 mmHg 49%
    21:00 -5°C° 0 mm 3 mps 765 mmHg 47%
    22:00 -5°C° 0 mm 3 mps 766 mmHg 46%
    23:00 -5°C° 0 mm 3 mps 766 mmHg 44%

    Tomorrow, 23 February, Saturday

    Time Temperature Precipitation Wind Pressure Humidity
    00:00 -5°C° 0 mm 3 mps 767 mmHg 43%
    01:00 -4°C° 0 mm 2 mps 767 mmHg 41%
    02:00 -4°C° 0 mm 2 mps 767 mmHg 41%
    03:00 -4°C° 0 mm 2 mps 767 mmHg 41%
    04:00 -4°C° 0 mm 2 mps 767 mmHg 40%
    05:00 -2°C° 0 mm 1 mps 767 mmHg 41%
    06:00 -2°C° 0 mm 1 mps 767 mmHg 41%
    07:00 -2°C° 0 mm 1 mps 767 mmHg 42%
    08:00 -2°C° 0 mm 1 mps 767 mmHg 38%
    09:00 -1°C° 0 mm 1 mps 767 mmHg 35%
    10:00 -2°C° 0 mm 2 mps 767 mmHg 32%
    11:00 +1°C° 0 mm 1 mps 767 mmHg 30%
    12:00 +1°C° 0 mm 1 mps 767 mmHg 27%
    13:00 +2°C° 0 mm 1 mps 766 mmHg 25%
    14:00 +2°C° 0 mm 1 mps 766 mmHg 26%
    15:00 +2°C° 0 mm 1 mps 766 mmHg 27%
    16:00 +1°C° 0 mm 0 mps 766 mmHg 28%
    17:00 +1°C° 0 mm 1 mps 765 mmHg 32%
    18:00 0°C° 0 mm 1 mps 765 mmHg 35%
    19:00 0°C° 0 mm 1 mps 765 mmHg 39%
    20:00 -1°C° 0 mm 1 mps 765 mmHg 40%
    21:00 -3°C° 0 mm 2 mps 765 mmHg 41%
    22:00 -3°C° 0 mm 2 mps 765 mmHg 42%
    23:00 -3°C° 0 mm 2 mps 764 mmHg 43%

    Day after tomorrow, 24 February, Sunday

    Time Temperature Precipitation Wind Pressure Humidity
    00:00 -3°C° 0 mm 2 mps 764 mmHg 43%
    01:00 -3°C° 0 mm 2 mps 764 mmHg 44%
    02:00 -1°C° 0 mm 1 mps 764 mmHg 43%
    03:00 -1°C° 0 mm 1 mps 764 mmHg 42%
    04:00 -1°C° 0 mm 1 mps 763 mmHg 41%
    05:00 -1°C° 0 mm 1 mps 763 mmHg 39%
    06:00 0°C° 0 mm 1 mps 763 mmHg 38%
    07:00 0°C° 0 mm 1 mps 763 mmHg 36%
    08:00 +1°C° 0 mm 1 mps 763 mmHg 34%
    09:00 +1°C° 0 mm 2 mps 763 mmHg 32%
    10:00 +2°C° 0 mm 2 mps 763 mmHg 30%
    11:00 +3°C° 0 mm 2 mps 763 mmHg 30%
    12:00 +3°C° 0 mm 3 mps 762 mmHg 30%
    13:00 +4°C° 0 mm 3 mps 762 mmHg 30%
    14:00 +4°C° 0 mm 3 mps 762 mmHg 35%
    15:00 +4°C° 0 mm 3 mps 762 mmHg 40%
    16:00 +5°C° 0 mm 2 mps 762 mmHg 45%
    17:00 +4°C° 0 mm 2 mps 762 mmHg 48%
    18:00 +3°C° 0 mm 2 mps 762 mmHg 52%
    19:00 +2°C° 0 mm 2 mps 762 mmHg 55%
    20:00 +1°C° 0 mm 2 mps 762 mmHg 58%
    21:00 0°C° 0 mm 3 mps 762 mmHg 60%
    22:00 0°C° 0 mm 3 mps 762 mmHg 62%
    23:00 0°C° 0 mm 3 mps 762 mmHg 64%

    25 February, Monday

    Time Temperature Precipitation Wind Pressure Humidity
    00:00 -1°C° 0 mm 3 mps 762 mmHg 66%
    01:00 -1°C° 0 mm 3 mps 762 mmHg 68%
    02:00 -1°C° 0 mm 3 mps 762 mmHg 70%
    03:00 -1°C° 0 mm 3 mps 762 mmHg 72%
    04:00 -1°C° 0 mm 3 mps 762 mmHg 74%
    05:00 -1°C° 0 mm 3 mps 762 mmHg 76%
    06:00 -1°C° 0 mm 3 mps 762 mmHg 78%
    07:00 -1°C° 0 mm 3 mps 762 mmHg 80%
    08:00 0°C° 0 mm 3 mps 762 mmHg 77%
    09:00 +1°C° 0 mm 3 mps 763 mmHg 74%
    10:00 +3°C° 0 mm 3 mps 763 mmHg 71%
    11:00 +4°C° 0 mm 3 mps 763 mmHg 69%
    12:00 +5°C° 0 mm 3 mps 763 mmHg 68%
    13:00 +7°C° 0 mm 3 mps 762 mmHg 67%
    14:00 +8°C° 0 mm 3 mps 762 mmHg 68%
    15:00 +8°C° 0 mm 3 mps 762 mmHg 69%
    16:00 +8°C° 0 mm 2 mps 761 mmHg 70%
    17:00 +7°C° 0 mm 2 mps 761 mmHg 75%
    18:00 +5°C° 0 mm 2 mps 761 mmHg 81%
    19:00 +4°C° 0 mm 2 mps 761 mmHg 86%
    20:00 +4°C° 0 mm 2 mps 761 mmHg 87%
    21:00 +3°C° 0 mm 3 mps 761 mmHg 89%
    22:00 +2°C° 0 mm 3 mps 761 mmHg 90%
    23:00 +2°C° 0 mm 3 mps 761 mmHg 89%

    26 February, Tuesday

    Time Temperature Precipitation Wind Pressure Humidity
    00:00 +2°C° 0 mm 3 mps 760 mmHg 88%
    01:00 +2°C° 0 mm 3 mps 760 mmHg 87%
    02:00 +2°C° 0 mm 3 mps 760 mmHg 84%
    03:00 0°C° 0 mm 4 mps 759 mmHg 82%
    04:00 0°C° 0 mm 4 mps 759 mmHg 80%
    05:00 0°C° 0 mm 4 mps 759 mmHg 81%
    06:00 -1°C° 0 mm 4 mps 759 mmHg 81%
    07:00 -1°C° 0 mm 4 mps 759 mmHg 82%
    08:00 +1°C° 0 mm 4 mps 759 mmHg 76%
    09:00 +2°C° 0 mm 5 mps 758 mmHg 70%
    10:00 +5°C° 0 mm 5 mps 758 mmHg 63%
    11:00 +5°C° 0 mm 6 mps 758 mmHg 59%
    12:00 +7°C° 0 mm 6 mps 758 mmHg 54%
    13:00 +9°C° 0 mm 6 mps 757 mmHg 49%
    14:00 +9°C° 0 mm 6 mps 757 mmHg 50%
    15:00 +9°C° 0 mm 6 mps 757 mmHg 50%
    16:00 +9°C° 0 mm 5 mps 757 mmHg 51%
    17:00 +8°C° 0 mm 5 mps 757 mmHg 56%
    18:00 +7°C° 0 mm 4 mps 757 mmHg 61%
    19:00 +6°C° 0 mm 4 mps 758 mmHg 66%
    20:00 +5°C° 0 mm 3 mps 758 mmHg 70%
    21:00 +4°C° 0 mm 3 mps 758 mmHg 74%
    22:00 +5°C° 0 mm 2 mps 758 mmHg 78%
    23:00 +4°C° 0 mm 2 mps 758 mmHg 81%

    27 February, Wednesday

    Time Temperature Precipitation Wind Pressure Humidity
    00:00 +4°C° 0 mm 2 mps 758 mmHg 83%
    01:00 +3°C° 0 mm 2 mps 757 mmHg 86%
    02:00 +3°C° 0 mm 2 mps 757 mmHg 87%
    03:00 +3°C° 0 mm 2 mps 757 mmHg 88%
    04:00 +2°C° 0 mm 2 mps 757 mmHg 90%
    05:00 +2°C° 0 mm 2 mps 757 mmHg 90%
    06:00 +2°C° 0 mm 2 mps 757 mmHg 91%
    07:00 +2°C° 0 mm 2 mps 756 mmHg 92%
    08:00 +3°C° 0 mm 2 mps 756 mmHg 86%
    09:00 +4°C° 0 mm 3 mps 756 mmHg 81%
    10:00 +5°C° 0 mm 3 mps 756 mmHg 75%
    11:00 +8°C° 0 mm 3 mps 755 mmHg 69%
    12:00 +9°C° 0 mm 3 mps 755 mmHg 64%
    13:00 +11°C° 0 mm 4 mps 754 mmHg 58%
    14:00 +11°C° 0 mm 3 mps 753 mmHg 58%
    15:00 +11°C° 0 mm 3 mps 752 mmHg 58%
    16:00 +12°C° 0 mm 3 mps 752 mmHg 57%
    17:00 +10°C° 0 mm 3 mps 751 mmHg 62%
    18:00 +9°C° 0 mm 3 mps 751 mmHg 66%
    19:00 +8°C° 0 mm 3 mps 751 mmHg 71%
    20:00 +7°C° 0 mm 3 mps 750 mmHg 72%
    21:00 +7°C° 0 mm 3 mps 750 mmHg 73%
    22:00 +7°C° 0 mm 3 mps 749 mmHg 74%
    23:00 +5°C° 0 mm 3 mps 749 mmHg 75%
    Show more